Location: Plymouth
(43.7490°N, 87.9770°W)
Time: 03:56:02
(UTC-05:00)

Daily predictions for brighter satellites

Satellite Brightness Start Highest point End
(mag) Time Altitude Azimuth Time Altitude Azimuth Time Altitude Azimuth
Cosmos 2369 Rocket 3.5 00:03:25 10° NW 00:07:06 33° WNW 00:07:06 33° WNW
CZ-2C R/B 3.9 00:16:47 10° N 00:21:04 36° NW 00:21:04 36° NW
ADEOS Rocket 3.8 00:16:35 10° NNE 00:21:59 45° ENE 00:21:59 45° ENE
Cosmos 2173 Rocket 4.4 00:28:34 58° NW 00:28:34 58° NW 00:33:54 10° N
USA 234 3.9 00:32:58 45° WNW 00:32:58 45° WNW 00:37:32 10° NW
CZ-4C R/B 4.0 00:29:46 23° WNW 00:31:52 29° NW 00:37:13 10° NNE
Mayak 1.2 00:32:08 10° N 00:33:35 21° N 00:33:35 21° N
ATLAS 5 CENTAUR R/B 3.8 00:32:28 10° NW 00:35:41 29° WNW 00:35:41 29° WNW
Cosmos 2016 Rocket 4.4 00:43:22 56° NNW 00:43:22 56° NNW 00:48:16 10° N
SeaSat 1 4.0 00:48:49 30° NNW 00:48:49 30° NNW 00:51:19 10° NNW
Lacrosse 5 4.5 00:48:34 10° WNW 00:48:55 12° WNW 00:48:55 12° WNW
Tsikada Rocket 4.5 00:54:11 10° N 00:59:03 56° NNW 00:59:03 56° NNW
Lacrosse 4 Rocket 4.3 01:02:04 10° NNE 01:04:13 13° NE 01:05:06 13° NE
CZ-2D R/B 4.2 01:43:47 10° NE 01:47:19 18° E 01:47:19 18° E
COSMOS 2406 3.9 01:50:43 50° NNW 01:50:43 50° NNW 01:55:17 10° NNE
Cosmos 2278 4.4 01:45:33 10° NNW 01:50:51 49° NE 01:50:51 49° NE
Cosmos 1464 Rocket 4.1 01:53:39 71° NNE 01:53:39 71° NNE 01:59:16 10° N
SL-16 R/B 3.8 01:51:48 27° ESE 01:54:05 35° ENE 01:59:40 10° N
Cosmos 1980 Rocket 4.2 01:49:34 10° N 01:54:06 24° NE 01:58:11 12° ESE
Cosmos 1697 Rocket 3.7 01:51:30 10° NNW 01:56:51 40° ENE 01:57:47 37° E
Cosmos 2082 Rocket 3.2 02:06:40 39° E 02:06:40 39° E 02:11:07 10° NE
ADEOS Rocket 4.3 02:02:31 10° N 02:08:23 30° WNW 02:08:56 30° WNW
H-2A R/B 4.4 02:08:27 10° NNE 02:10:57 26° ENE 02:10:57 26° ENE
Nadezhda 4 Rocket 4.0 02:07:52 10° N 02:13:59 72° ENE 02:13:59 72° ENE
Cosmos 1656 4.0 02:17:24 10° NNW 02:22:01 60° NNW 02:22:01 60° NNW
Resurs 1-4 Rocket 3.1 02:18:43 10° NNE 02:23:32 36° E 02:23:32 36° E
Meteor 1-15 Rocket 4.3 02:25:31 10° N 02:31:29 75° ENE 02:31:38 75° E
IRS-P3 4.4 02:28:36 10° NNE 02:33:41 60° E 02:33:41 60° E
Cosmos 909 Rocket 3.9 02:28:26 10° NW 02:34:29 78° W 02:34:29 78° W
NPP 3.8 02:29:25 10° NNE 02:34:34 66° E 02:34:34 66° E
SL-08 R/B 3.8 02:37:48 61° NE 02:37:48 61° NE 02:42:11 10° N
CBERS-1 4.2 02:35:44 10° NNE 02:40:29 66° ENE 02:40:29 66° ENE
Cosmos 1833 Rocket 2.6 02:41:36 83° NE 02:41:36 83° NE 02:47:03 10° NNE
Cosmos 1025 Rocket 4.1 02:42:56 42° NE 02:42:56 42° NE 02:46:11 10° NNE
Cosmos 2369 4.4 02:37:24 10° NNW 02:41:17 42° NW 02:41:17 42° NW
UNK 4.2 02:44:07 58° NNE 02:44:07 58° NNE 02:47:59 10° N
Lacrosse 4 Rocket 3.1 02:39:10 10° NNW 02:41:22 29° NNW 02:41:22 29° NNW
Cosmos 2026 Rocket 4.5 02:40:45 10° N 02:47:03 57° ENE 02:49:30 36° SE
Cosmos 1932 4.4 02:53:22 70° S 02:54:05 80° ESE 03:00:31 10° NE
AQUA 3.9 02:53:36 10° NNE 02:58:01 76° NNE 02:58:01 76° NNE
Iridium 4 Rocket 3.5 03:00:48 61° NNE 03:00:48 61° NNE 03:04:34 10° N
Cosmos 1570 Rocket 4.1 03:00:10 63° SE 03:00:29 65° ESE 03:05:45 10° NNE
Cosmos 2360 4.3 02:59:06 10° NNW 03:04:49 77° ENE 03:07:08 37° SE
Cosmos 1607 4.2 03:04:44 52° W 03:05:53 60° NW 03:12:20 10° NNE
APEX 4.4 03:06:54 61° SW 03:08:04 76° WNW 03:13:55 10° NNE
Cosmos 2195 Rocket 4.3 03:02:11 10° N 03:08:23 88° W 03:09:49 56° S
Cosmos 1356 Rocket 4.0 03:10:57 51° E 03:10:57 51° E 03:14:38 10° NNE
Lacrosse 5 rocket 2.0 03:11:25 52° N 03:11:25 52° N 03:15:00 10° NE
ARIANE 5 R/B 2.8 03:07:25 10° NNE 03:12:38 63° ESE 03:13:42 51° SSE
Cosmos 468 Rocket 4.4 03:12:08 48° SE 03:13:08 56° ESE 03:18:20 10° NNE
Spot 4 Rocket 4.2 03:08:16 10° NNE 03:13:26 66° ESE 03:14:22 54° SSE
Cosmos 371 Rocket 4.1 03:17:11 38° WNW 03:17:11 38° WNW 03:21:30 10° N
Okean 2 4.3 03:19:39 40° NW 03:19:39 40° NW 03:22:40 10° N
Cosmos 1066 Rocket 4.1 03:18:27 60° S 03:19:29 86° E 03:24:56 10° N
Cosmos 1092 Rocket 4.1 03:15:33 10° NNW 03:21:33 51° W 03:22:10 49° WSW
Cosmos 1655 Rocket 4.2 03:17:12 10° N 03:23:36 72° E 03:27:55 22° SSE
Cosmos 2142 Rocket 4.3 03:22:36 52° SSW 03:24:11 79° W 03:30:21 10° N
Helios 1A Rocket 3.3 03:22:44 10° NNE 03:26:51 56° E 03:27:22 52° SE
CZ-2D R/B 2.1 03:22:31 10° N 03:27:51 64° WNW 03:28:39 56° WSW
CZ-2D R/B 4.3 03:24:04 10° NNE 03:27:59 43° E 03:28:55 37° SE
Cosmos 1726 Rocket 3.5 03:30:15 10° N 03:34:35 78° E 03:35:31 54° SSE
SL-16 R/B 2.9 03:36:53 41° WSW 03:37:33 43° W 03:43:30 10° NNW
Cosmos 1980 Rocket 2.2 03:32:58 10° NNW 03:38:30 58° WSW 03:39:51 46° SSW
IRS-1D 3.7 03:33:53 10° N 03:38:58 60° WNW 03:40:00 49° WSW
Cosmos 1428 Rocket 4.3 03:34:15 10° N 03:40:27 76° W 03:43:29 32° S
Cosmos 1697 Rocket 3.7 03:35:43 10° NW 03:39:27 29° W 03:39:27 29° W
Okean 1-7 Rocket 3.7 03:46:30 53° W 03:46:52 55° WNW 03:51:19 10° N
H-2A R/B 3.9 03:44:11 10° NNW 03:47:33 25° WNW 03:47:33 25° WNW
ADEOS II 2.9 03:43:23 10° NNE 03:48:27 47° E 03:52:21 16° SSE
Cosmos 2082 Rocket 3.2 03:48:31 28° W 03:50:01 32° NW 03:55:05 10° N
ADEOS 3.6 03:45:31 10° NNE 03:50:46 80° ESE 03:53:17 32° S
Cosmos 841 Rocket 4.1 03:48:23 25° S 03:51:09 52° ESE 03:56:12 10° NNE
Cosmos 304 Rocket 4.1 03:50:21 43° W 03:51:12 48° WNW 03:55:54 10° N
SL-16 R/B 2.6 03:45:57 10° NNW 03:51:36 63° ENE 03:57:13 10° SE
UNKNOWN OBJECT B 2.6 03:49:11 10° NNE 03:53:04 85° ESE 03:53:49 56° S
Cosmos 2058 Rocket 3.0 03:51:28 10° N 03:55:54 88° W 03:58:12 28° S
Cosmos 1544 4.2 03:53:38 10° NNW 03:56:06 31° WNW 03:56:06 31° WNW
Cosmos 2228 2.8 03:55:36 10° NNW 03:59:52 73° W 04:01:27 37° S
MOZ.5/SAFIR/RUBIN 5/SL-8 4.5 04:00:06 34° W 04:00:06 34° W 04:04:22 10° NNW
Cosmos 1606 Rocket 3.9 03:58:38 10° NNW 04:02:42 41° W 04:02:57 41° WSW
Resurs 1-4 Rocket 3.0 03:58:43 10° N 04:03:17 31° WNW 04:04:37 27° W
Meteor 1-22 Rocket 4.3 03:59:06 10° NNW 04:04:57 59° W 04:08:33 23° SSW
Cosmos 2322 Rocket 2.3 04:01:27 10° NNW 04:07:08 79° ENE 04:12:45 10° SSE
ATLAS 3B R/B 3.0 04:03:31 23° SSW 04:08:13 69° ESE 04:15:06 10° NE
Cosmos 1626 Rocket 4.2 04:06:33 15° SSE 04:09:58 53° E 04:14:12 10° NNE
NOSS 3-2 (A) 4.1 04:10:13 17° S 04:14:31 50° ESE 04:20:44 10° NE
SJ 16-02 2.6 04:10:42 10° N 04:14:55 42° ENE 04:19:07 10° SE
Cosmos 1892 Rocket 4.0 04:15:29 34° WSW 04:16:48 44° WNW 04:21:02 10° N
Cosmos 292 Rocket 4.0 04:13:38 21° S 04:16:52 69° ESE 04:21:40 10° NNE
Cosmos 1763 Rocket 3.6 04:14:42 29° SW 04:17:23 66° WNW 04:22:42 10° NNE
Cosmos 1842 3.3 04:16:46 36° SW 04:18:10 60° W 04:22:06 10° N
Cosmos 1378 4.4 04:14:46 10° SSE 04:18:16 39° E 04:21:49 10° NNE
COSMOS 2487 4.3 04:18:57 17° WNW 04:19:04 17° WNW 04:21:30 10° NNW
ATLAS CENTAUR R/B 3.6 04:16:31 10° NNW 04:20:25 31° NE 04:24:32 10° ESE
deb Kosmos-1763 4.1 04:22:46 34° SW 04:24:15 66° WNW 04:28:00 10° NNE
USA 215 3.5 04:21:17 10° NE 04:27:46 62° SE 04:32:57 17° SSW
Cosmos 1898 Rocket 4.4 04:26:37 10° NW 04:30:56 27° W 04:32:40 22° SW
Cosmos 1805 3.8 04:29:15 10° NNW 04:32:50 36° W 04:34:26 25° SW
Cosmos 1953 2.3 04:29:46 10° N 04:33:52 86° E 04:37:56 10° S
Cosmos 44 3.7 04:30:55 10° NW 04:35:57 49° WSW 04:41:07 10° S
Cosmos 1937 Rocket 4.2 04:36:43 10° NW 04:41:12 30° W 04:45:29 11° SSW
Cosmos 1125 Rocket 3.8 04:38:44 10° NNW 04:44:05 74° ENE 04:49:21 10° SSE
Aureole 2 Rocket 2.9 04:43:10 10° NNW 04:47:01 69° ENE 04:50:35 10° SSE
Cosmos 2322 4.5 04:43:50 10° NNW 04:49:29 58° ENE 04:55:07 10° SE
Lacrosse 5 rocket 3.6 04:48:05 10° WNW 04:50:52 17° NNW 04:53:33 10° NNE
ARIANE 5 R/B 4.1 04:47:37 10° NNW 04:51:15 19° WNW 04:54:03 13° W
Okean O Rocket 2.9 04:51:43 10° NNE 04:55:50 40° E 04:59:56 10° S
Timation 2 Rocket 4.4 04:52:41 15° WSW 04:57:22 44° NW 05:03:04 10° NNE
ERBS 3.8 04:55:38 10° SSW 04:58:38 31° SE 05:01:41 10° ENE
Cosmos 1758 4.0 04:56:22 10° NNW 04:59:57 33° W 05:03:32 10° SSW
Cosmos 1825 Rocket 4.2 04:55:47 10° S 05:00:00 58° E 05:04:16 10° NNE
USA 267 4.1 04:56:45 10° ESE 05:03:05 55° NNE 05:09:26 10° NW
Cosmos 44 Rocket 3.8 05:00:12 10° NW 05:04:58 39° WSW 05:09:46 10° S
Cosmos 1244 Rocket 4.4 05:01:35 10° N 05:07:43 80° W 05:13:52 10° S
Cosmos 372 Rocket 4.0 05:02:46 10° NNW 05:07:58 65° WSW 05:13:04 10° S
Cosmos 1733 4.0 05:05:43 10° NNW 05:09:09 31° W 05:12:35 10° SSW
USA 238 DEB 4.2 05:05:08 12° WSW 05:11:24 50° NW 05:18:12 10° NNE
USA 238 4.1 05:05:12 12° WSW 05:11:30 50° NW 05:18:18 10° NNE
Meteor 2-5 Rocket 4.1 05:06:33 10° S 05:12:01 67° E 05:17:35 10° NNE
DNEPR-1 R/B 3.8 05:11:12 11° SW 05:15:16 55° NW 05:19:53 10° NNE
PSLV R/B 3.9 05:14:34 10° N 05:18:37 45° WNW 05:22:36 10° SW
Cosmos 2360 Rocket 2.2 05:14:27 10° NNW 05:20:02 63° WSW 05:25:33 10° S
Cosmos 1745 Rocket 4.4 05:13:52 10° N 05:20:03 69° E 05:26:16 10° SSE
BREEZE-M R/B 3.9 05:18:34 10° W 05:22:16 57° NNW 05:29:49 10° ENE
S3M 4.2 05:18:24 10° S 05:24:31 78° E 05:30:38 10° N
Cosmos 1953 Rocket 3.8 05:21:34 10° S 05:26:02 79° E 05:30:30 10° N
ADEOS II 3.3 05:23:41 10° N 05:27:53 25° WNW 05:32:03 10° WSW
Cosmos 1812 Rocket 4.5 05:25:19 10° NNW 05:29:13 30° W 05:33:05 10° SSW
CZ-4B R/B 3.3 05:25:46 10° N 05:29:51 46° WNW 05:33:42 10° SW
BREEZE-M DEB (TANK) 4.1 05:23:24 10° WNW 05:31:18 27° WSW 05:34:29 10° S
